DW7098 Weather Reports


time (UTC)temp
C
wind
direction
speed
KPH
gust
KPH
rain 1hr
cm
rain 24hr
cm
rain mn
cm
humidity
%
barometer
mb
20260902000103 17 219 1.6 6.4 0.00 0.00 0.00
20260901233046 17 250 0.0 9.7 0.00 0.00 0.00
20260901230053 17 227 0.0 8.0 0.00 0.00 0.00
20260901223034 16 73 0.0 4.8 0.00 0.00 0.00
20260901213049 17 251 0.0 1.6 0.00 0.00 0.00
20260901210100 17 190 0.0 1.6 0.00 0.00 0.00
20260901203040 17 243 3.2 6.4 0.00 0.00 0.00
20260901193034 17 204 0.0 4.8 0.00 0.00 0.00
20260901183045 17 255 3.2 12.9 0.00 0.00 0.00
20260901180056 17 180 1.6 9.7 0.00 0.00 0.00
20260901170108 16 216 1.6 6.4 0.00 0.00 0.00
20260901160101 16 265 1.6 4.8 0.00 0.00 0.00
20260901153040 16 217 0.0 8.0 0.00 0.00 0.00
20260901150111 16 171 0.0 3.2 0.00 0.00 0.00
20260901143047 15 232 0.0 6.4 0.00 0.00 0.00
20260901133039 15 258 3.2 8.0 0.00 0.00 0.00
20260901130111 15 234 0.0 6.4 0.00 0.00 0.00
20260901120104 15 250 0.0 8.0 0.00 0.00 0.00
20260901110055 15 261 1.6 8.0 0.00 0.00 0.00
20260901103035 15 271 1.6 8.0 0.00 0.00 0.00
20260901093044 15 235 0.0 4.8 0.00 0.00 0.00
20260901083038 15 224 0.0 4.8 0.00 0.00 0.00
20260901073032 15 216 1.6 4.8 0.00 0.00 0.00
20260901070104 15 202 1.6 3.2 0.00 0.00 0.00
20260901063041 15 237 1.6 6.4 0.00 0.00 0.00
20260901060108 15 271 1.6 8.0 0.00 0.00 0.00
20260901053046 16 234 0.0 3.2 0.00 0.00 0.00
20260901050056 16 205 0.0 1.6 0.00 0.00 0.00
20260901043037 16 257 0.0 0.0 0.00 0.00 0.00
20260901040110 17 263 0.0 1.6 0.00 0.00 0.00
20260901033050 17 248 0.0 3.2 0.00 0.00 0.00
20260901030058 18 257 0.0 3.2 0.00 0.00 0.00
20260901023038 19 221 0.0 3.2 0.00 0.00 0.00
20260901020110 20 237 1.6 6.4 0.00 0.00 0.00
20260901013029 21 195 3.2 8.0 0.00 0.00 0.00